📊 Raw Sensor Data

Showing records 44576 to 44600 of 85,038 total

ID Distance (ft) Battery V Battery A Int Temp (°F) Int Humid (%) Ext Temp (°F) Solar V RSSI SNR Time Stamp
40475 16.0 3.95 0 67 41 61 5.10 -71 8 05/13/2025 10:45 AM
40474 16.0 3.95 0 66 41 64 5.10 -70 7 05/13/2025 10:30 AM
40473 16.0 3.95 0 66 40 62 5.10 -70 8 05/13/2025 10:15 AM
40472 15.9 3.95 0 63 41 60 5.10 -70 8 05/13/2025 10:00 AM
40471 15.8 3.95 0 61 41 58 5.10 -71 7 05/13/2025 09:45 AM
40470 15.8 3.95 0 61 42 57 5.10 -70 8 05/13/2025 09:30 AM
40469 15.8 3.95 0 61 41 59 5.10 -72 8 05/13/2025 09:15 AM
40468 15.9 3.97 0 60 41 56 5.10 -70 8 05/13/2025 09:00 AM
40467 15.9 3.95 0 60 40 57 5.10 -71 8 05/13/2025 08:45 AM
40466 16.0 3.95 0 60 41 60 5.10 -71 8 05/13/2025 08:30 AM
40465 15.9 3.95 0 58 41 55 5.10 -71 8 05/13/2025 08:15 AM
40464 16.0 4.12 0 57 41 56 5.10 -72 7 05/13/2025 08:00 AM
40463 16.0 3.95 0 56 40 56 5.10 -71 7 05/13/2025 07:45 AM
40462 16.0 4.09 54 54 40 56 4.50 -72 8 05/13/2025 07:30 AM
40461 15.9 4.00 27 52 41 56 4.50 -71 8 05/13/2025 07:15 AM
40460 15.8 3.98 -5 49 42 51 4.50 -71 8 05/13/2025 07:00 AM
40459 15.8 3.90 0 49 42 50 4.50 -71 8 05/13/2025 06:45 AM
40458 15.9 3.95 0 49 42 50 4.50 -71 8 05/13/2025 06:30 AM
40457 16.0 3.88 -9 49 42 50 4.50 -71 8 05/13/2025 06:15 AM
40456 15.9 3.94 -10 49 42 50 3.20 -71 9 05/13/2025 06:00 AM
40455 15.9 3.89 -5 50 42 51 1.10 -69 8 05/13/2025 05:45 AM
40454 15.9 3.95 -5 51 42 52 0.00 -70 8 05/13/2025 05:30 AM
40453 15.9 3.89 -5 51 42 52 0.00 -71 8 05/13/2025 05:15 AM
40452 16.0 3.95 -5 51 42 52 0.00 -71 8 05/13/2025 05:00 AM
40451 15.9 3.89 -5 51 42 52 0.00 -72 8 05/13/2025 04:45 AM